SPACEMOBILE-001

Last updated on Fri Oct 04 2024 00:02:04 GMT+0000 (Coordinated Universal Time)

1 61047U 24163C 24277.50847106 .00007445 00000+0 38174-3 0 9992 2 61047 52.9740 285.1487 0013904 31.0769 329.1043 15.17472560 3200
UTC large
Height (km)
Speed (km/s)
/
Latitude / Longitude
Inclination (degrees)
Orbital Period (minutes)
Azimuth
Elevation
Range (km)
Doppler Factor

Next 0 passes for location: London (51.5072 / 0.1276)

Sorry there are no passes over London.